Index of /20260425/WXO-DD/model_rdps/10km/12/051
Name Last modified Size Description
Parent Directory -
20260425T12Z_MSC_RDPS_AbsoluteVorticity_IsbL-0250_RLatLon0.09_PT051H.grib2 2026-04-25 14:57 595K
20260425T12Z_MSC_RDPS_AbsoluteVorticity_IsbL-0500_RLatLon0.09_PT051H.grib2 2026-04-25 14:57 554K
20260425T12Z_MSC_RDPS_AbsoluteVorticity_IsbL-0700_RLatLon0.09_PT051H.grib2 2026-04-25 14:57 614K
20260425T12Z_MSC_RDPS_AbsoluteVorticity_IsbL-0850_RLatLon0.09_PT051H.grib2 2026-04-25 14:57 780K
20260425T12Z_MSC_RDPS_AirTemp_AGL-120m_RLatLon0.09_PT051H.grib2 2026-04-25 14:57 387K
20260425T12Z_MSC_RDPS_AirTemp_AGL-2m_RLatLon0.09_PT051H.grib2 2026-04-25 14:57 647K
20260425T12Z_MSC_RDPS_AirTemp_AGL-40m_RLatLon0.09_PT051H.grib2 2026-04-25 14:57 414K
20260425T12Z_MSC_RDPS_AirTemp_AGL-80m_RLatLon0.09_PT051H.grib2 2026-04-25 14:57 409K
20260425T12Z_MSC_RDPS_AirTemp_IsbL-0001_RLatLon0.09_PT051H.grib2 2026-04-25 14:57 277K
20260425T12Z_MSC_RDPS_AirTemp_IsbL-0005_RLatLon0.09_PT051H.grib2 2026-04-25 14:57 330K
20260425T12Z_MSC_RDPS_AirTemp_IsbL-0010_RLatLon0.09_PT051H.grib2 2026-04-25 14:57 303K
20260425T12Z_MSC_RDPS_AirTemp_IsbL-0020_RLatLon0.09_PT051H.grib2 2026-04-25 14:57 320K
20260425T12Z_MSC_RDPS_AirTemp_IsbL-0030_RLatLon0.09_PT051H.grib2 2026-04-25 14:57 338K
20260425T12Z_MSC_RDPS_AirTemp_IsbL-0050_RLatLon0.09_PT051H.grib2 2026-04-25 14:57 316K
20260425T12Z_MSC_RDPS_AirTemp_IsbL-0100_RLatLon0.09_PT051H.grib2 2026-04-25 14:57 418K
20260425T12Z_MSC_RDPS_AirTemp_IsbL-0150_RLatLon0.09_PT051H.grib2 2026-04-25 14:57 411K
20260425T12Z_MSC_RDPS_AirTemp_IsbL-0175_RLatLon0.09_PT051H.grib2 2026-04-25 14:57 405K
20260425T12Z_MSC_RDPS_AirTemp_IsbL-0200_RLatLon0.09_PT051H.grib2 2026-04-25 14:57 411K
20260425T12Z_MSC_RDPS_AirTemp_IsbL-0225_RLatLon0.09_PT051H.grib2 2026-04-25 14:57 411K
20260425T12Z_MSC_RDPS_AirTemp_IsbL-0250_RLatLon0.09_PT051H.grib2 2026-04-25 14:57 417K
20260425T12Z_MSC_RDPS_AirTemp_IsbL-0275_RLatLon0.09_PT051H.grib2 2026-04-25 14:57 400K
20260425T12Z_MSC_RDPS_AirTemp_IsbL-0300_RLatLon0.09_PT051H.grib2 2026-04-25 14:57 406K
20260425T12Z_MSC_RDPS_AirTemp_IsbL-0350_RLatLon0.09_PT051H.grib2 2026-04-25 14:57 418K
20260425T12Z_MSC_RDPS_AirTemp_IsbL-0400_RLatLon0.09_PT051H.grib2 2026-04-25 14:57 418K
20260425T12Z_MSC_RDPS_AirTemp_IsbL-0450_RLatLon0.09_PT051H.grib2 2026-04-25 14:57 424K
20260425T12Z_MSC_RDPS_AirTemp_IsbL-0500_RLatLon0.09_PT051H.grib2 2026-04-25 14:57 402K
20260425T12Z_MSC_RDPS_AirTemp_IsbL-0550_RLatLon0.09_PT051H.grib2 2026-04-25 14:57 419K
20260425T12Z_MSC_RDPS_AirTemp_IsbL-0600_RLatLon0.09_PT051H.grib2 2026-04-25 14:57 437K
20260425T12Z_MSC_RDPS_AirTemp_IsbL-0650_RLatLon0.09_PT051H.grib2 2026-04-25 14:57 450K
20260425T12Z_MSC_RDPS_AirTemp_IsbL-0700_RLatLon0.09_PT051H.grib2 2026-04-25 14:57 476K
20260425T12Z_MSC_RDPS_AirTemp_IsbL-0750_RLatLon0.09_PT051H.grib2 2026-04-25 14:57 407K
20260425T12Z_MSC_RDPS_AirTemp_IsbL-0800_RLatLon0.09_PT051H.grib2 2026-04-25 14:57 459K
20260425T12Z_MSC_RDPS_AirTemp_IsbL-0850_RLatLon0.09_PT051H.grib2 2026-04-25 14:57 509K
20260425T12Z_MSC_RDPS_AirTemp_IsbL-0875_RLatLon0.09_PT051H.grib2 2026-04-25 14:57 524K
20260425T12Z_MSC_RDPS_AirTemp_IsbL-0900_RLatLon0.09_PT051H.grib2 2026-04-25 14:57 530K
20260425T12Z_MSC_RDPS_AirTemp_IsbL-0925_RLatLon0.09_PT051H.grib2 2026-04-25 14:57 531K
20260425T12Z_MSC_RDPS_AirTemp_IsbL-0950_RLatLon0.09_PT051H.grib2 2026-04-25 14:57 534K
20260425T12Z_MSC_RDPS_AirTemp_IsbL-0970_RLatLon0.09_PT051H.grib2 2026-04-25 14:57 533K
20260425T12Z_MSC_RDPS_AirTemp_IsbL-0985_RLatLon0.09_PT051H.grib2 2026-04-25 14:57 527K
20260425T12Z_MSC_RDPS_AirTemp_IsbL-1000_RLatLon0.09_PT051H.grib2 2026-04-25 14:57 511K
20260425T12Z_MSC_RDPS_AirTemp_IsbL-1015_RLatLon0.09_PT051H.grib2 2026-04-25 14:57 504K
20260425T12Z_MSC_RDPS_Albedo_Sfc_RLatLon0.09_PT051H.grib2 2026-04-25 14:57 166K
20260425T12Z_MSC_RDPS_CAPE_Sfc_RLatLon0.09_PT051H.grib2 2026-04-25 14:57 1.8M
20260425T12Z_MSC_RDPS_CIN_Sfc_RLatLon0.09_PT051H.grib2 2026-04-25 14:57 1.1M
20260425T12Z_MSC_RDPS_CloudWater_EAtm_RLatLon0.09_PT051H.grib2 2026-04-25 14:57 217K
20260425T12Z_MSC_RDPS_ConvectivePrecip-Accum_Sfc_RLatLon0.09_PT051H.grib2 2026-04-25 14:57 1.1M
20260425T12Z_MSC_RDPS_DewPointDepression_AGL-2m_RLatLon0.09_PT051H.grib2 2026-04-25 14:57 417K
20260425T12Z_MSC_RDPS_DewPointDepression_IsbL-0001_RLatLon0.09_PT051H.grib2 2026-04-25 14:57 193
20260425T12Z_MSC_RDPS_DewPointDepression_IsbL-0005_RLatLon0.09_PT051H.grib2 2026-04-25 14:57 193
20260425T12Z_MSC_RDPS_DewPointDepression_IsbL-0010_RLatLon0.09_PT051H.grib2 2026-04-25 14:57 193
20260425T12Z_MSC_RDPS_DewPointDepression_IsbL-0020_RLatLon0.09_PT051H.grib2 2026-04-25 14:57 193
20260425T12Z_MSC_RDPS_DewPointDepression_IsbL-0030_RLatLon0.09_PT051H.grib2 2026-04-25 14:57 193
20260425T12Z_MSC_RDPS_DewPointDepression_IsbL-0050_RLatLon0.09_PT051H.grib2 2026-04-25 14:57 88K
20260425T12Z_MSC_RDPS_DewPointDepression_IsbL-0100_RLatLon0.09_PT051H.grib2 2026-04-25 14:57 124K
20260425T12Z_MSC_RDPS_DewPointDepression_IsbL-0150_RLatLon0.09_PT051H.grib2 2026-04-25 14:57 146K
20260425T12Z_MSC_RDPS_DewPointDepression_IsbL-0175_RLatLon0.09_PT051H.grib2 2026-04-25 14:57 180K
20260425T12Z_MSC_RDPS_DewPointDepression_IsbL-0200_RLatLon0.09_PT051H.grib2 2026-04-25 14:57 221K
20260425T12Z_MSC_RDPS_DewPointDepression_IsbL-0225_RLatLon0.09_PT051H.grib2 2026-04-25 14:57 256K
20260425T12Z_MSC_RDPS_DewPointDepression_IsbL-0250_RLatLon0.09_PT051H.grib2 2026-04-25 14:57 291K
20260425T12Z_MSC_RDPS_DewPointDepression_IsbL-0275_RLatLon0.09_PT051H.grib2 2026-04-25 14:57 301K
20260425T12Z_MSC_RDPS_DewPointDepression_IsbL-0300_RLatLon0.09_PT051H.grib2 2026-04-25 14:57 317K
20260425T12Z_MSC_RDPS_DewPointDepression_IsbL-0350_RLatLon0.09_PT051H.grib2 2026-04-25 14:57 324K
20260425T12Z_MSC_RDPS_DewPointDepression_IsbL-0400_RLatLon0.09_PT051H.grib2 2026-04-25 14:57 342K
20260425T12Z_MSC_RDPS_DewPointDepression_IsbL-0450_RLatLon0.09_PT051H.grib2 2026-04-25 14:57 355K
20260425T12Z_MSC_RDPS_DewPointDepression_IsbL-0500_RLatLon0.09_PT051H.grib2 2026-04-25 14:57 359K
20260425T12Z_MSC_RDPS_DewPointDepression_IsbL-0550_RLatLon0.09_PT051H.grib2 2026-04-25 14:57 366K
20260425T12Z_MSC_RDPS_DewPointDepression_IsbL-0600_RLatLon0.09_PT051H.grib2 2026-04-25 14:57 374K
20260425T12Z_MSC_RDPS_DewPointDepression_IsbL-0650_RLatLon0.09_PT051H.grib2 2026-04-25 14:57 381K
20260425T12Z_MSC_RDPS_DewPointDepression_IsbL-0700_RLatLon0.09_PT051H.grib2 2026-04-25 14:57 393K
20260425T12Z_MSC_RDPS_DewPointDepression_IsbL-0750_RLatLon0.09_PT051H.grib2 2026-04-25 14:57 419K
20260425T12Z_MSC_RDPS_DewPointDepression_IsbL-0800_RLatLon0.09_PT051H.grib2 2026-04-25 14:57 457K
20260425T12Z_MSC_RDPS_DewPointDepression_IsbL-0850_RLatLon0.09_PT051H.grib2 2026-04-25 14:57 482K
20260425T12Z_MSC_RDPS_DewPointDepression_IsbL-0875_RLatLon0.09_PT051H.grib2 2026-04-25 14:57 481K
20260425T12Z_MSC_RDPS_DewPointDepression_IsbL-0900_RLatLon0.09_PT051H.grib2 2026-04-25 14:57 470K
20260425T12Z_MSC_RDPS_DewPointDepression_IsbL-0925_RLatLon0.09_PT051H.grib2 2026-04-25 14:57 460K
20260425T12Z_MSC_RDPS_DewPointDepression_IsbL-0950_RLatLon0.09_PT051H.grib2 2026-04-25 14:57 451K
20260425T12Z_MSC_RDPS_DewPointDepression_IsbL-0970_RLatLon0.09_PT051H.grib2 2026-04-25 14:57 447K
20260425T12Z_MSC_RDPS_DewPointDepression_IsbL-0985_RLatLon0.09_PT051H.grib2 2026-04-25 14:57 444K
20260425T12Z_MSC_RDPS_DewPointDepression_IsbL-1000_RLatLon0.09_PT051H.grib2 2026-04-25 14:57 440K
20260425T12Z_MSC_RDPS_DewPointDepression_IsbL-1015_RLatLon0.09_PT051H.grib2 2026-04-25 14:57 433K
20260425T12Z_MSC_RDPS_DewPoint_AGL-2m_RLatLon0.09_PT051H.grib2 2026-04-25 14:57 407K
20260425T12Z_MSC_RDPS_DownwardLongwaveRadiationFlux-Accum_Sfc_RLatLon0.09_PT051H.grib2 2026-04-25 14:57 383K
20260425T12Z_MSC_RDPS_DownwardShortwaveRadiationFlux-Accum_NTAtm_RLatLon0.09_PT051H.grib2 2026-04-25 14:57 153K
20260425T12Z_MSC_RDPS_DownwardShortwaveRadiationFlux-Accum_Sfc_RLatLon0.09_PT051H.grib2 2026-04-25 14:57 576K
20260425T12Z_MSC_RDPS_FreezingRain-Accum1h_Sfc_RLatLon0.09_PT051H.grib2 2026-04-25 14:57 33K
20260425T12Z_MSC_RDPS_FreezingRain-Accum3h_Sfc_RLatLon0.09_PT051H.grib2 2026-04-25 14:57 48K
20260425T12Z_MSC_RDPS_FreezingRain-Accum_Sfc_RLatLon0.09_PT051H.grib2 2026-04-25 14:57 168K
20260425T12Z_MSC_RDPS_GeopotentialHeight_IsbL-0001_RLatLon0.09_PT051H.grib2 2026-04-25 14:57 274K
20260425T12Z_MSC_RDPS_GeopotentialHeight_IsbL-0005_RLatLon0.09_PT051H.grib2 2026-04-25 14:57 310K
20260425T12Z_MSC_RDPS_GeopotentialHeight_IsbL-0010_RLatLon0.09_PT051H.grib2 2026-04-25 14:57 339K
20260425T12Z_MSC_RDPS_GeopotentialHeight_IsbL-0020_RLatLon0.09_PT051H.grib2 2026-04-25 14:57 305K
20260425T12Z_MSC_RDPS_GeopotentialHeight_IsbL-0030_RLatLon0.09_PT051H.grib2 2026-04-25 14:57 307K
20260425T12Z_MSC_RDPS_GeopotentialHeight_IsbL-0050_RLatLon0.09_PT051H.grib2 2026-04-25 14:57 307K
20260425T12Z_MSC_RDPS_GeopotentialHeight_IsbL-0100_RLatLon0.09_PT051H.grib2 2026-04-25 14:57 287K
20260425T12Z_MSC_RDPS_GeopotentialHeight_IsbL-0150_RLatLon0.09_PT051H.grib2 2026-04-25 14:57 226K
20260425T12Z_MSC_RDPS_GeopotentialHeight_IsbL-0175_RLatLon0.09_PT051H.grib2 2026-04-25 14:57 228K
20260425T12Z_MSC_RDPS_GeopotentialHeight_IsbL-0200_RLatLon0.09_PT051H.grib2 2026-04-25 14:57 231K
20260425T12Z_MSC_RDPS_GeopotentialHeight_IsbL-0225_RLatLon0.09_PT051H.grib2 2026-04-25 14:57 263K
20260425T12Z_MSC_RDPS_GeopotentialHeight_IsbL-0250_RLatLon0.09_PT051H.grib2 2026-04-25 14:57 265K
20260425T12Z_MSC_RDPS_GeopotentialHeight_IsbL-0275_RLatLon0.09_PT051H.grib2 2026-04-25 14:57 233K
20260425T12Z_MSC_RDPS_GeopotentialHeight_IsbL-0300_RLatLon0.09_PT051H.grib2 2026-04-25 14:57 234K
20260425T12Z_MSC_RDPS_GeopotentialHeight_IsbL-0350_RLatLon0.09_PT051H.grib2 2026-04-25 14:57 230K
20260425T12Z_MSC_RDPS_GeopotentialHeight_IsbL-0400_RLatLon0.09_PT051H.grib2 2026-04-25 14:57 226K
20260425T12Z_MSC_RDPS_GeopotentialHeight_IsbL-0450_RLatLon0.09_PT051H.grib2 2026-04-25 14:57 295K
20260425T12Z_MSC_RDPS_GeopotentialHeight_IsbL-0500_RLatLon0.09_PT051H.grib2 2026-04-25 14:57 290K
20260425T12Z_MSC_RDPS_GeopotentialHeight_IsbL-0550_RLatLon0.09_PT051H.grib2 2026-04-25 14:57 285K
20260425T12Z_MSC_RDPS_GeopotentialHeight_IsbL-0600_RLatLon0.09_PT051H.grib2 2026-04-25 14:57 281K
20260425T12Z_MSC_RDPS_GeopotentialHeight_IsbL-0650_RLatLon0.09_PT051H.grib2 2026-04-25 14:57 280K
20260425T12Z_MSC_RDPS_GeopotentialHeight_IsbL-0700_RLatLon0.09_PT051H.grib2 2026-04-25 14:57 279K
20260425T12Z_MSC_RDPS_GeopotentialHeight_IsbL-0750_RLatLon0.09_PT051H.grib2 2026-04-25 14:57 253K
20260425T12Z_MSC_RDPS_GeopotentialHeight_IsbL-0800_RLatLon0.09_PT051H.grib2 2026-04-25 14:57 259K
20260425T12Z_MSC_RDPS_GeopotentialHeight_IsbL-0850_RLatLon0.09_PT051H.grib2 2026-04-25 14:57 268K
20260425T12Z_MSC_RDPS_GeopotentialHeight_IsbL-0875_RLatLon0.09_PT051H.grib2 2026-04-25 14:57 271K
20260425T12Z_MSC_RDPS_GeopotentialHeight_IsbL-0900_RLatLon0.09_PT051H.grib2 2026-04-25 14:57 275K
20260425T12Z_MSC_RDPS_GeopotentialHeight_IsbL-0925_RLatLon0.09_PT051H.grib2 2026-04-25 14:57 278K
20260425T12Z_MSC_RDPS_GeopotentialHeight_IsbL-0950_RLatLon0.09_PT051H.grib2 2026-04-25 14:57 281K
20260425T12Z_MSC_RDPS_GeopotentialHeight_IsbL-0970_RLatLon0.09_PT051H.grib2 2026-04-25 14:57 285K
20260425T12Z_MSC_RDPS_GeopotentialHeight_IsbL-0985_RLatLon0.09_PT051H.grib2 2026-04-25 14:57 294K
20260425T12Z_MSC_RDPS_GeopotentialHeight_IsbL-1000_RLatLon0.09_PT051H.grib2 2026-04-25 14:57 305K
20260425T12Z_MSC_RDPS_GeopotentialHeight_IsbL-1015_RLatLon0.09_PT051H.grib2 2026-04-25 14:57 318K
20260425T12Z_MSC_RDPS_Humidex_Sfc_RLatLon0.09_PT051H.grib2 2026-04-25 14:57 2.4M
20260425T12Z_MSC_RDPS_IcePellets-Accum1h_Sfc_RLatLon0.09_PT051H.grib2 2026-04-25 14:57 9.5K
20260425T12Z_MSC_RDPS_IcePellets-Accum3h_Sfc_RLatLon0.09_PT051H.grib2 2026-04-25 14:57 12K
20260425T12Z_MSC_RDPS_IcePellets-Accum_Sfc_RLatLon0.09_PT051H.grib2 2026-04-25 14:57 37K
20260425T12Z_MSC_RDPS_KIndex_Sfc_RLatLon0.09_PT051H.grib2 2026-04-25 14:57 2.3M
20260425T12Z_MSC_RDPS_LatentHeatNetFlux_Sfc_RLatLon0.09_PT051H.grib2 2026-04-25 14:57 382K
20260425T12Z_MSC_RDPS_LiftedIndex-MU-VT_IsbL-0500_RLatLon0.09_PT051H.grib2 2026-04-25 14:57 2.4M
20260425T12Z_MSC_RDPS_NetLongwaveRadiationFlux-Accum_Sfc_RLatLon0.09_PT051H.grib2 2026-04-25 14:57 557K
20260425T12Z_MSC_RDPS_NetShortwaveRadiationFlux-Accum_Sfc_RLatLon0.09_PT051H.grib2 2026-04-25 14:57 578K
20260425T12Z_MSC_RDPS_PlanetaryBoundaryLayerHeight_Sfc_RLatLon0.09_PT051H.grib2 2026-04-25 14:57 1.2M
20260425T12Z_MSC_RDPS_Precip-Accum1h_Sfc_RLatLon0.09_PT051H.grib2 2026-04-25 14:57 1.4M
20260425T12Z_MSC_RDPS_Precip-Accum3h_Sfc_RLatLon0.09_PT051H.grib2 2026-04-25 14:57 1.5M
20260425T12Z_MSC_RDPS_Precip-Accum_Sfc_RLatLon0.09_PT051H.grib2 2026-04-25 14:57 2.1M
20260425T12Z_MSC_RDPS_PrecipRate_Sfc_RLatLon0.09_PT051H.grib2 2026-04-25 14:57 189K
20260425T12Z_MSC_RDPS_PrecipType-Instant_Sfc_RLatLon0.09_PT051H.grib2 2026-04-25 14:57 577K
20260425T12Z_MSC_RDPS_Pressure-Trend3h_Sfc_RLatLon0.09_PT051H.grib2 2026-04-25 14:57 1.2M
20260425T12Z_MSC_RDPS_Pressure_MSL_RLatLon0.09_PT051H.grib2 2026-04-25 14:57 329K
20260425T12Z_MSC_RDPS_Pressure_PVU-1.5_RLatLon0.09_PT051H.grib2 2026-04-25 14:57 2.5M
20260425T12Z_MSC_RDPS_Pressure_PVU-1_RLatLon0.09_PT051H.grib2 2026-04-25 14:57 2.4M
20260425T12Z_MSC_RDPS_Pressure_PVU-2_RLatLon0.09_PT051H.grib2 2026-04-25 14:57 2.4M
20260425T12Z_MSC_RDPS_Pressure_Sfc_RLatLon0.09_PT051H.grib2 2026-04-25 14:57 500K
20260425T12Z_MSC_RDPS_RadiativeTemp_Sfc_RLatLon0.09_PT051H.grib2 2026-04-25 14:57 319K
20260425T12Z_MSC_RDPS_Rain-Accum1h_Sfc_RLatLon0.09_PT051H.grib2 2026-04-25 14:57 698K
20260425T12Z_MSC_RDPS_Rain-Accum3h_Sfc_RLatLon0.09_PT051H.grib2 2026-04-25 14:57 739K
20260425T12Z_MSC_RDPS_Rain-Accum_Sfc_RLatLon0.09_PT051H.grib2 2026-04-25 14:57 1.6M
20260425T12Z_MSC_RDPS_RelativeHumidity_AGL-2m_RLatLon0.09_PT051H.grib2 2026-04-25 14:57 1.0M
20260425T12Z_MSC_RDPS_RelativeHumidity_IsbL-0010_RLatLon0.09_PT051H.grib2 2026-04-25 14:57 631K
20260425T12Z_MSC_RDPS_RelativeHumidity_IsbL-0020_RLatLon0.09_PT051H.grib2 2026-04-25 14:57 653K
20260425T12Z_MSC_RDPS_RelativeHumidity_IsbL-0030_RLatLon0.09_PT051H.grib2 2026-04-25 14:57 540K
20260425T12Z_MSC_RDPS_RelativeHumidity_IsbL-0050_RLatLon0.09_PT051H.grib2 2026-04-25 14:57 327K
20260425T12Z_MSC_RDPS_RelativeHumidity_IsbL-0100_RLatLon0.09_PT051H.grib2 2026-04-25 14:57 271K
20260425T12Z_MSC_RDPS_RelativeHumidity_IsbL-0150_RLatLon0.09_PT051H.grib2 2026-04-25 14:57 395K
20260425T12Z_MSC_RDPS_RelativeHumidity_IsbL-0175_RLatLon0.09_PT051H.grib2 2026-04-25 14:57 472K
20260425T12Z_MSC_RDPS_RelativeHumidity_IsbL-0200_RLatLon0.09_PT051H.grib2 2026-04-25 14:57 551K
20260425T12Z_MSC_RDPS_RelativeHumidity_IsbL-0225_RLatLon0.09_PT051H.grib2 2026-04-25 14:57 611K
20260425T12Z_MSC_RDPS_RelativeHumidity_IsbL-0250_RLatLon0.09_PT051H.grib2 2026-04-25 14:57 676K
20260425T12Z_MSC_RDPS_RelativeHumidity_IsbL-0275_RLatLon0.09_PT051H.grib2 2026-04-25 14:57 705K
20260425T12Z_MSC_RDPS_RelativeHumidity_IsbL-0300_RLatLon0.09_PT051H.grib2 2026-04-25 14:57 749K
20260425T12Z_MSC_RDPS_RelativeHumidity_IsbL-0350_RLatLon0.09_PT051H.grib2 2026-04-25 14:57 771K
20260425T12Z_MSC_RDPS_RelativeHumidity_IsbL-0400_RLatLon0.09_PT051H.grib2 2026-04-25 14:57 794K
20260425T12Z_MSC_RDPS_RelativeHumidity_IsbL-0450_RLatLon0.09_PT051H.grib2 2026-04-25 14:57 809K
20260425T12Z_MSC_RDPS_RelativeHumidity_IsbL-0500_RLatLon0.09_PT051H.grib2 2026-04-25 14:57 818K
20260425T12Z_MSC_RDPS_RelativeHumidity_IsbL-0550_RLatLon0.09_PT051H.grib2 2026-04-25 14:57 831K
20260425T12Z_MSC_RDPS_RelativeHumidity_IsbL-0600_RLatLon0.09_PT051H.grib2 2026-04-25 14:57 846K
20260425T12Z_MSC_RDPS_RelativeHumidity_IsbL-0650_RLatLon0.09_PT051H.grib2 2026-04-25 14:57 859K
20260425T12Z_MSC_RDPS_RelativeHumidity_IsbL-0700_RLatLon0.09_PT051H.grib2 2026-04-25 14:57 893K
20260425T12Z_MSC_RDPS_RelativeHumidity_IsbL-0750_RLatLon0.09_PT051H.grib2 2026-04-25 14:57 941K
20260425T12Z_MSC_RDPS_RelativeHumidity_IsbL-0800_RLatLon0.09_PT051H.grib2 2026-04-25 14:57 1.0M
20260425T12Z_MSC_RDPS_RelativeHumidity_IsbL-0850_RLatLon0.09_PT051H.grib2 2026-04-25 14:57 1.1M
20260425T12Z_MSC_RDPS_RelativeHumidity_IsbL-0875_RLatLon0.09_PT051H.grib2 2026-04-25 14:57 1.1M
20260425T12Z_MSC_RDPS_RelativeHumidity_IsbL-0900_RLatLon0.09_PT051H.grib2 2026-04-25 14:57 1.1M
20260425T12Z_MSC_RDPS_RelativeHumidity_IsbL-0925_RLatLon0.09_PT051H.grib2 2026-04-25 14:57 1.1M
20260425T12Z_MSC_RDPS_RelativeHumidity_IsbL-0950_RLatLon0.09_PT051H.grib2 2026-04-25 14:57 1.1M
20260425T12Z_MSC_RDPS_RelativeHumidity_IsbL-0970_RLatLon0.09_PT051H.grib2 2026-04-25 14:57 1.1M
20260425T12Z_MSC_RDPS_RelativeHumidity_IsbL-0985_RLatLon0.09_PT051H.grib2 2026-04-25 14:57 1.1M
20260425T12Z_MSC_RDPS_RelativeHumidity_IsbL-1000_RLatLon0.09_PT051H.grib2 2026-04-25 14:57 1.0M
20260425T12Z_MSC_RDPS_RelativeHumidity_IsbL-1015_RLatLon0.09_PT051H.grib2 2026-04-25 14:57 1.0M
20260425T12Z_MSC_RDPS_Runoff-Accum_Sfc_RLatLon0.09_PT051H.grib2 2026-04-25 14:57 68K
20260425T12Z_MSC_RDPS_SWEATIndex_Sfc_RLatLon0.09_PT051H.grib2 2026-04-25 14:57 2.4M
20260425T12Z_MSC_RDPS_SeeingIndex_EAtm_RLatLon0.09_PT051H.grib2 2026-04-25 14:57 1.0M
20260425T12Z_MSC_RDPS_SensibleHeatNetFlux_Sfc_RLatLon0.09_PT051H.grib2 2026-04-25 14:57 360K
20260425T12Z_MSC_RDPS_ShowalterIndex_IsbL-0500_RLatLon0.09_PT051H.grib2 2026-04-25 14:57 2.6M
20260425T12Z_MSC_RDPS_SkyTransparencyIndex_EAtm_RLatLon0.09_PT051H.grib2 2026-04-25 14:57 722K
20260425T12Z_MSC_RDPS_Snow-Accum1h_Sfc_RLatLon0.09_PT051H.grib2 2026-04-25 14:57 502K
20260425T12Z_MSC_RDPS_Snow-Accum3h_Sfc_RLatLon0.09_PT051H.grib2 2026-04-25 14:57 421K
20260425T12Z_MSC_RDPS_Snow-Accum_Sfc_RLatLon0.09_PT051H.grib2 2026-04-25 14:57 840K
20260425T12Z_MSC_RDPS_SnowDensity_Sfc_RLatLon0.09_PT051H.grib2 2026-04-25 14:57 186K
20260425T12Z_MSC_RDPS_SnowDepth_Sfc_RLatLon0.09_PT051H.grib2 2026-04-25 14:57 736K
20260425T12Z_MSC_RDPS_SoilTemp_DBS-0to10cm_RLatLon0.09_PT051H.grib2 2026-04-25 14:57 234K
20260425T12Z_MSC_RDPS_SoilTemp_Sfc_RLatLon0.09_PT051H.grib2 2026-04-25 14:57 284K
20260425T12Z_MSC_RDPS_SoilVolumetricIceContent_Sfc_RLatLon0.09_PT051H.grib2 2026-04-25 14:57 169K
20260425T12Z_MSC_RDPS_SoilVolumetricWaterContent_DBS-0to10cm_RLatLon0.09_PT051H.grib2 2026-04-25 14:57 259K
20260425T12Z_MSC_RDPS_SoilVolumetricWaterContent_DBS-0to1cm_RLatLon0.09_PT051H.grib2 2026-04-25 14:57 343K
20260425T12Z_MSC_RDPS_SpecificHumidity_AGL-120m_RLatLon0.09_PT051H.grib2 2026-04-25 14:57 497K
20260425T12Z_MSC_RDPS_SpecificHumidity_AGL-2m_RLatLon0.09_PT051H.grib2 2026-04-25 14:57 667K
20260425T12Z_MSC_RDPS_SpecificHumidity_AGL-40m_RLatLon0.09_PT051H.grib2 2026-04-25 14:57 503K
20260425T12Z_MSC_RDPS_SpecificHumidity_AGL-80m_RLatLon0.09_PT051H.grib2 2026-04-25 14:57 499K
20260425T12Z_MSC_RDPS_SpecificHumidity_IsbL-0001_RLatLon0.09_PT051H.grib2 2026-04-25 14:57 348K
20260425T12Z_MSC_RDPS_SpecificHumidity_IsbL-0005_RLatLon0.09_PT051H.grib2 2026-04-25 14:57 422K
20260425T12Z_MSC_RDPS_SpecificHumidity_IsbL-0010_RLatLon0.09_PT051H.grib2 2026-04-25 14:57 395K
20260425T12Z_MSC_RDPS_SpecificHumidity_IsbL-0020_RLatLon0.09_PT051H.grib2 2026-04-25 14:57 385K
20260425T12Z_MSC_RDPS_SpecificHumidity_IsbL-0030_RLatLon0.09_PT051H.grib2 2026-04-25 14:57 472K
20260425T12Z_MSC_RDPS_SpecificHumidity_IsbL-0050_RLatLon0.09_PT051H.grib2 2026-04-25 14:57 494K
20260425T12Z_MSC_RDPS_SpecificHumidity_IsbL-0100_RLatLon0.09_PT051H.grib2 2026-04-25 14:57 419K
20260425T12Z_MSC_RDPS_SpecificHumidity_IsbL-0150_RLatLon0.09_PT051H.grib2 2026-04-25 14:57 348K
20260425T12Z_MSC_RDPS_SpecificHumidity_IsbL-0175_RLatLon0.09_PT051H.grib2 2026-04-25 14:57 439K
20260425T12Z_MSC_RDPS_SpecificHumidity_IsbL-0200_RLatLon0.09_PT051H.grib2 2026-04-25 14:57 453K
20260425T12Z_MSC_RDPS_SpecificHumidity_IsbL-0225_RLatLon0.09_PT051H.grib2 2026-04-25 14:57 552K
20260425T12Z_MSC_RDPS_SpecificHumidity_IsbL-0250_RLatLon0.09_PT051H.grib2 2026-04-25 14:57 546K
20260425T12Z_MSC_RDPS_SpecificHumidity_IsbL-0275_RLatLon0.09_PT051H.grib2 2026-04-25 14:57 461K
20260425T12Z_MSC_RDPS_SpecificHumidity_IsbL-0300_RLatLon0.09_PT051H.grib2 2026-04-25 14:57 530K
20260425T12Z_MSC_RDPS_SpecificHumidity_IsbL-0350_RLatLon0.09_PT051H.grib2 2026-04-25 14:57 520K
20260425T12Z_MSC_RDPS_SpecificHumidity_IsbL-0400_RLatLon0.09_PT051H.grib2 2026-04-25 14:57 509K
20260425T12Z_MSC_RDPS_SpecificHumidity_IsbL-0450_RLatLon0.09_PT051H.grib2 2026-04-25 14:57 589K
20260425T12Z_MSC_RDPS_SpecificHumidity_IsbL-0500_RLatLon0.09_PT051H.grib2 2026-04-25 14:57 509K
20260425T12Z_MSC_RDPS_SpecificHumidity_IsbL-0550_RLatLon0.09_PT051H.grib2 2026-04-25 14:57 561K
20260425T12Z_MSC_RDPS_SpecificHumidity_IsbL-0600_RLatLon0.09_PT051H.grib2 2026-04-25 14:57 625K
20260425T12Z_MSC_RDPS_SpecificHumidity_IsbL-0650_RLatLon0.09_PT051H.grib2 2026-04-25 14:57 667K
20260425T12Z_MSC_RDPS_SpecificHumidity_IsbL-0700_RLatLon0.09_PT051H.grib2 2026-04-25 14:57 588K
20260425T12Z_MSC_RDPS_SpecificHumidity_IsbL-0750_RLatLon0.09_PT051H.grib2 2026-04-25 14:57 649K
20260425T12Z_MSC_RDPS_SpecificHumidity_IsbL-0800_RLatLon0.09_PT051H.grib2 2026-04-25 14:57 728K
20260425T12Z_MSC_RDPS_SpecificHumidity_IsbL-0850_RLatLon0.09_PT051H.grib2 2026-04-25 14:57 808K
20260425T12Z_MSC_RDPS_SpecificHumidity_IsbL-0875_RLatLon0.09_PT051H.grib2 2026-04-25 14:57 830K
20260425T12Z_MSC_RDPS_SpecificHumidity_IsbL-0900_RLatLon0.09_PT051H.grib2 2026-04-25 14:57 839K
20260425T12Z_MSC_RDPS_SpecificHumidity_IsbL-0925_RLatLon0.09_PT051H.grib2 2026-04-25 14:57 843K
20260425T12Z_MSC_RDPS_SpecificHumidity_IsbL-0950_RLatLon0.09_PT051H.grib2 2026-04-25 14:57 840K
20260425T12Z_MSC_RDPS_SpecificHumidity_IsbL-0970_RLatLon0.09_PT051H.grib2 2026-04-25 14:57 694K
20260425T12Z_MSC_RDPS_SpecificHumidity_IsbL-0985_RLatLon0.09_PT051H.grib2 2026-04-25 14:57 691K
20260425T12Z_MSC_RDPS_SpecificHumidity_IsbL-1000_RLatLon0.09_PT051H.grib2 2026-04-25 14:57 687K
20260425T12Z_MSC_RDPS_SpecificHumidity_IsbL-1015_RLatLon0.09_PT051H.grib2 2026-04-25 14:57 678K
20260425T12Z_MSC_RDPS_SpecificHumidity_Sfc_RLatLon0.09_PT051H.grib2 2026-04-25 14:57 313K
20260425T12Z_MSC_RDPS_StormRelativeHelicity_EtaL-10000_RLatLon0.09_PT051H.grib2 2026-04-25 14:57 1.1M
20260425T12Z_MSC_RDPS_StormSeverityIndex_EtaL-10000_RLatLon0.09_PT051H.grib2 2026-04-25 14:57 1.1M
20260425T12Z_MSC_RDPS_Thickness_IsbL-0850to0700_RLatLon0.09_PT051H.grib2 2026-04-25 14:57 175K
20260425T12Z_MSC_RDPS_Thickness_IsbL-1000to0500_RLatLon0.09_PT051H.grib2 2026-04-25 14:57 200K
20260425T12Z_MSC_RDPS_Thickness_IsbL-1000to0850_RLatLon0.09_PT051H.grib2 2026-04-25 14:57 188K
20260425T12Z_MSC_RDPS_TotalCloudCover_Sfc_RLatLon0.09_PT051H.grib2 2026-04-25 14:57 671K
20260425T12Z_MSC_RDPS_TotalTotalsIndex_Sfc_RLatLon0.09_PT051H.grib2 2026-04-25 14:57 2.4M
20260425T12Z_MSC_RDPS_UVIndex-ClearSky_Sfc_RLatLon0.09_PT051H.grib2 2026-04-25 14:57 181K
20260425T12Z_MSC_RDPS_UVIndex_Sfc_RLatLon0.09_PT051H.grib2 2026-04-25 14:57 419K
20260425T12Z_MSC_RDPS_UpwardLongwaveRadiationFlux_NTAtm_RLatLon0.09_PT051H.grib2 2026-04-25 14:57 487K
20260425T12Z_MSC_RDPS_UpwardShortwaveRadiationFlux_NTAtm_RLatLon0.09_PT051H.grib2 2026-04-25 14:57 469K
20260425T12Z_MSC_RDPS_VerticalVelocity_IsbL-0250_RLatLon0.09_PT051H.grib2 2026-04-25 14:57 567K
20260425T12Z_MSC_RDPS_VerticalVelocity_IsbL-0500_RLatLon0.09_PT051H.grib2 2026-04-25 14:57 535K
20260425T12Z_MSC_RDPS_VerticalVelocity_IsbL-0700_RLatLon0.09_PT051H.grib2 2026-04-25 14:57 585K
20260425T12Z_MSC_RDPS_VerticalVelocity_IsbL-0850_RLatLon0.09_PT051H.grib2 2026-04-25 14:57 693K
20260425T12Z_MSC_RDPS_VerticalWindShear_EtaL-6500_RLatLon0.09_PT051H.grib2 2026-04-25 14:57 1.2M
20260425T12Z_MSC_RDPS_WindChill_Sfc_RLatLon0.09_PT051H.grib2 2026-04-25 14:57 1.3M
20260425T12Z_MSC_RDPS_WindDir_AGL-10m_RLatLon0.09_PT051H.grib2 2026-04-25 14:57 1.0M
20260425T12Z_MSC_RDPS_WindDir_AGL-120m_RLatLon0.09_PT051H.grib2 2026-04-25 14:57 625K
20260425T12Z_MSC_RDPS_WindDir_AGL-40m_RLatLon0.09_PT051H.grib2 2026-04-25 14:57 651K
20260425T12Z_MSC_RDPS_WindDir_AGL-80m_RLatLon0.09_PT051H.grib2 2026-04-25 14:57 636K
20260425T12Z_MSC_RDPS_WindDir_IsbL-0001_RLatLon0.09_PT051H.grib2 2026-04-25 14:57 288K
20260425T12Z_MSC_RDPS_WindDir_IsbL-0005_RLatLon0.09_PT051H.grib2 2026-04-25 14:57 344K
20260425T12Z_MSC_RDPS_WindDir_IsbL-0010_RLatLon0.09_PT051H.grib2 2026-04-25 14:57 376K
20260425T12Z_MSC_RDPS_WindDir_IsbL-0020_RLatLon0.09_PT051H.grib2 2026-04-25 14:57 403K
20260425T12Z_MSC_RDPS_WindDir_IsbL-0030_RLatLon0.09_PT051H.grib2 2026-04-25 14:57 412K
20260425T12Z_MSC_RDPS_WindDir_IsbL-0050_RLatLon0.09_PT051H.grib2 2026-04-25 14:57 422K
20260425T12Z_MSC_RDPS_WindDir_IsbL-0100_RLatLon0.09_PT051H.grib2 2026-04-25 14:57 402K
20260425T12Z_MSC_RDPS_WindDir_IsbL-0150_RLatLon0.09_PT051H.grib2 2026-04-25 14:57 398K
20260425T12Z_MSC_RDPS_WindDir_IsbL-0175_RLatLon0.09_PT051H.grib2 2026-04-25 14:57 419K
20260425T12Z_MSC_RDPS_WindDir_IsbL-0200_RLatLon0.09_PT051H.grib2 2026-04-25 14:57 433K
20260425T12Z_MSC_RDPS_WindDir_IsbL-0225_RLatLon0.09_PT051H.grib2 2026-04-25 14:57 442K
20260425T12Z_MSC_RDPS_WindDir_IsbL-0250_RLatLon0.09_PT051H.grib2 2026-04-25 14:57 444K
20260425T12Z_MSC_RDPS_WindDir_IsbL-0275_RLatLon0.09_PT051H.grib2 2026-04-25 14:57 472K
20260425T12Z_MSC_RDPS_WindDir_IsbL-0300_RLatLon0.09_PT051H.grib2 2026-04-25 14:57 469K
20260425T12Z_MSC_RDPS_WindDir_IsbL-0350_RLatLon0.09_PT051H.grib2 2026-04-25 14:57 486K
20260425T12Z_MSC_RDPS_WindDir_IsbL-0400_RLatLon0.09_PT051H.grib2 2026-04-25 14:57 505K
20260425T12Z_MSC_RDPS_WindDir_IsbL-0450_RLatLon0.09_PT051H.grib2 2026-04-25 14:57 521K
20260425T12Z_MSC_RDPS_WindDir_IsbL-0500_RLatLon0.09_PT051H.grib2 2026-04-25 14:57 536K
20260425T12Z_MSC_RDPS_WindDir_IsbL-0550_RLatLon0.09_PT051H.grib2 2026-04-25 14:57 544K
20260425T12Z_MSC_RDPS_WindDir_IsbL-0600_RLatLon0.09_PT051H.grib2 2026-04-25 14:57 574K
20260425T12Z_MSC_RDPS_WindDir_IsbL-0650_RLatLon0.09_PT051H.grib2 2026-04-25 14:57 621K
20260425T12Z_MSC_RDPS_WindDir_IsbL-0700_RLatLon0.09_PT051H.grib2 2026-04-25 14:57 665K
20260425T12Z_MSC_RDPS_WindDir_IsbL-0750_RLatLon0.09_PT051H.grib2 2026-04-25 14:57 718K
20260425T12Z_MSC_RDPS_WindDir_IsbL-0800_RLatLon0.09_PT051H.grib2 2026-04-25 14:57 789K
20260425T12Z_MSC_RDPS_WindDir_IsbL-0850_RLatLon0.09_PT051H.grib2 2026-04-25 14:57 860K
20260425T12Z_MSC_RDPS_WindDir_IsbL-0875_RLatLon0.09_PT051H.grib2 2026-04-25 14:57 888K
20260425T12Z_MSC_RDPS_WindDir_IsbL-0900_RLatLon0.09_PT051H.grib2 2026-04-25 14:57 907K
20260425T12Z_MSC_RDPS_WindDir_IsbL-0925_RLatLon0.09_PT051H.grib2 2026-04-25 14:57 921K
20260425T12Z_MSC_RDPS_WindDir_IsbL-0950_RLatLon0.09_PT051H.grib2 2026-04-25 14:57 921K
20260425T12Z_MSC_RDPS_WindDir_IsbL-0970_RLatLon0.09_PT051H.grib2 2026-04-25 14:57 926K
20260425T12Z_MSC_RDPS_WindDir_IsbL-0985_RLatLon0.09_PT051H.grib2 2026-04-25 14:57 939K
20260425T12Z_MSC_RDPS_WindDir_IsbL-1000_RLatLon0.09_PT051H.grib2 2026-04-25 14:57 957K
20260425T12Z_MSC_RDPS_WindDir_IsbL-1015_RLatLon0.09_PT051H.grib2 2026-04-25 14:57 1.0M
20260425T12Z_MSC_RDPS_WindGust-Max_AGL-10m_RLatLon0.09_PT051H.grib2 2026-04-25 14:57 957K
20260425T12Z_MSC_RDPS_WindGust-Min_AGL-10m_RLatLon0.09_PT051H.grib2 2026-04-25 14:57 1.0M
20260425T12Z_MSC_RDPS_WindGust_AGL-10m_RLatLon0.09_PT051H.grib2 2026-04-25 14:57 950K
20260425T12Z_MSC_RDPS_WindSpeed_AGL-10m_RLatLon0.09_PT051H.grib2 2026-04-25 14:57 855K
20260425T12Z_MSC_RDPS_WindSpeed_AGL-120m_RLatLon0.09_PT051H.grib2 2026-04-25 14:57 557K
20260425T12Z_MSC_RDPS_WindSpeed_AGL-40m_RLatLon0.09_PT051H.grib2 2026-04-25 14:57 560K
20260425T12Z_MSC_RDPS_WindSpeed_AGL-80m_RLatLon0.09_PT051H.grib2 2026-04-25 14:57 558K
20260425T12Z_MSC_RDPS_WindSpeed_IsbL-0001_RLatLon0.09_PT051H.grib2 2026-04-25 14:57 253K
20260425T12Z_MSC_RDPS_WindSpeed_IsbL-0005_RLatLon0.09_PT051H.grib2 2026-04-25 14:57 296K
20260425T12Z_MSC_RDPS_WindSpeed_IsbL-0010_RLatLon0.09_PT051H.grib2 2026-04-25 14:57 403K
20260425T12Z_MSC_RDPS_WindSpeed_IsbL-0020_RLatLon0.09_PT051H.grib2 2026-04-25 14:57 325K
20260425T12Z_MSC_RDPS_WindSpeed_IsbL-0030_RLatLon0.09_PT051H.grib2 2026-04-25 14:57 322K
20260425T12Z_MSC_RDPS_WindSpeed_IsbL-0050_RLatLon0.09_PT051H.grib2 2026-04-25 14:57 353K
20260425T12Z_MSC_RDPS_WindSpeed_IsbL-0100_RLatLon0.09_PT051H.grib2 2026-04-25 14:57 470K
20260425T12Z_MSC_RDPS_WindSpeed_IsbL-0150_RLatLon0.09_PT051H.grib2 2026-04-25 14:57 367K
20260425T12Z_MSC_RDPS_WindSpeed_IsbL-0175_RLatLon0.09_PT051H.grib2 2026-04-25 14:57 418K
20260425T12Z_MSC_RDPS_WindSpeed_IsbL-0200_RLatLon0.09_PT051H.grib2 2026-04-25 14:57 434K
20260425T12Z_MSC_RDPS_WindSpeed_IsbL-0225_RLatLon0.09_PT051H.grib2 2026-04-25 14:57 441K
20260425T12Z_MSC_RDPS_WindSpeed_IsbL-0250_RLatLon0.09_PT051H.grib2 2026-04-25 14:57 442K
20260425T12Z_MSC_RDPS_WindSpeed_IsbL-0275_RLatLon0.09_PT051H.grib2 2026-04-25 14:57 461K
20260425T12Z_MSC_RDPS_WindSpeed_IsbL-0300_RLatLon0.09_PT051H.grib2 2026-04-25 14:57 459K
20260425T12Z_MSC_RDPS_WindSpeed_IsbL-0350_RLatLon0.09_PT051H.grib2 2026-04-25 14:57 470K
20260425T12Z_MSC_RDPS_WindSpeed_IsbL-0400_RLatLon0.09_PT051H.grib2 2026-04-25 14:57 458K
20260425T12Z_MSC_RDPS_WindSpeed_IsbL-0450_RLatLon0.09_PT051H.grib2 2026-04-25 14:57 457K
20260425T12Z_MSC_RDPS_WindSpeed_IsbL-0500_RLatLon0.09_PT051H.grib2 2026-04-25 14:57 572K
20260425T12Z_MSC_RDPS_WindSpeed_IsbL-0550_RLatLon0.09_PT051H.grib2 2026-04-25 14:57 569K
20260425T12Z_MSC_RDPS_WindSpeed_IsbL-0600_RLatLon0.09_PT051H.grib2 2026-04-25 14:57 581K
20260425T12Z_MSC_RDPS_WindSpeed_IsbL-0650_RLatLon0.09_PT051H.grib2 2026-04-25 14:57 647K
20260425T12Z_MSC_RDPS_WindSpeed_IsbL-0700_RLatLon0.09_PT051H.grib2 2026-04-25 14:57 671K
20260425T12Z_MSC_RDPS_WindSpeed_IsbL-0750_RLatLon0.09_PT051H.grib2 2026-04-25 14:57 702K
20260425T12Z_MSC_RDPS_WindSpeed_IsbL-0800_RLatLon0.09_PT051H.grib2 2026-04-25 14:57 755K
20260425T12Z_MSC_RDPS_WindSpeed_IsbL-0850_RLatLon0.09_PT051H.grib2 2026-04-25 14:57 769K
20260425T12Z_MSC_RDPS_WindSpeed_IsbL-0875_RLatLon0.09_PT051H.grib2 2026-04-25 14:57 791K
20260425T12Z_MSC_RDPS_WindSpeed_IsbL-0900_RLatLon0.09_PT051H.grib2 2026-04-25 14:57 855K
20260425T12Z_MSC_RDPS_WindSpeed_IsbL-0925_RLatLon0.09_PT051H.grib2 2026-04-25 14:57 867K
20260425T12Z_MSC_RDPS_WindSpeed_IsbL-0950_RLatLon0.09_PT051H.grib2 2026-04-25 14:57 866K
20260425T12Z_MSC_RDPS_WindSpeed_IsbL-0970_RLatLon0.09_PT051H.grib2 2026-04-25 14:57 863K
20260425T12Z_MSC_RDPS_WindSpeed_IsbL-0985_RLatLon0.09_PT051H.grib2 2026-04-25 14:57 862K
20260425T12Z_MSC_RDPS_WindSpeed_IsbL-1000_RLatLon0.09_PT051H.grib2 2026-04-25 14:57 859K
20260425T12Z_MSC_RDPS_WindSpeed_IsbL-1015_RLatLon0.09_PT051H.grib2 2026-04-25 14:57 853K
20260425T12Z_MSC_RDPS_WindU_AGL-10m_RLatLon0.09_PT051H.grib2 2026-04-25 14:57 390K
20260425T12Z_MSC_RDPS_WindU_AGL-120m_RLatLon0.09_PT051H.grib2 2026-04-25 14:57 423K
20260425T12Z_MSC_RDPS_WindU_AGL-40m_RLatLon0.09_PT051H.grib2 2026-04-25 14:57 426K
20260425T12Z_MSC_RDPS_WindU_AGL-80m_RLatLon0.09_PT051H.grib2 2026-04-25 14:57 424K
20260425T12Z_MSC_RDPS_WindU_IsbL-0001_RLatLon0.09_PT051H.grib2 2026-04-25 14:57 293K
20260425T12Z_MSC_RDPS_WindU_IsbL-0005_RLatLon0.09_PT051H.grib2 2026-04-25 14:57 331K
20260425T12Z_MSC_RDPS_WindU_IsbL-0010_RLatLon0.09_PT051H.grib2 2026-04-25 14:57 301K
20260425T12Z_MSC_RDPS_WindU_IsbL-0020_RLatLon0.09_PT051H.grib2 2026-04-25 14:57 356K
20260425T12Z_MSC_RDPS_WindU_IsbL-0030_RLatLon0.09_PT051H.grib2 2026-04-25 14:57 354K
20260425T12Z_MSC_RDPS_WindU_IsbL-0050_RLatLon0.09_PT051H.grib2 2026-04-25 14:57 383K
20260425T12Z_MSC_RDPS_WindU_IsbL-0100_RLatLon0.09_PT051H.grib2 2026-04-25 14:57 428K
20260425T12Z_MSC_RDPS_WindU_IsbL-0150_RLatLon0.09_PT051H.grib2 2026-04-25 14:57 385K
20260425T12Z_MSC_RDPS_WindU_IsbL-0175_RLatLon0.09_PT051H.grib2 2026-04-25 14:57 410K
20260425T12Z_MSC_RDPS_WindU_IsbL-0200_RLatLon0.09_PT051H.grib2 2026-04-25 14:57 329K
20260425T12Z_MSC_RDPS_WindU_IsbL-0225_RLatLon0.09_PT051H.grib2 2026-04-25 14:57 334K
20260425T12Z_MSC_RDPS_WindU_IsbL-0250_RLatLon0.09_PT051H.grib2 2026-04-25 14:57 335K
20260425T12Z_MSC_RDPS_WindU_IsbL-0275_RLatLon0.09_PT051H.grib2 2026-04-25 14:57 350K
20260425T12Z_MSC_RDPS_WindU_IsbL-0300_RLatLon0.09_PT051H.grib2 2026-04-25 14:57 346K
20260425T12Z_MSC_RDPS_WindU_IsbL-0350_RLatLon0.09_PT051H.grib2 2026-04-25 14:57 355K
20260425T12Z_MSC_RDPS_WindU_IsbL-0400_RLatLon0.09_PT051H.grib2 2026-04-25 14:57 359K
20260425T12Z_MSC_RDPS_WindU_IsbL-0450_RLatLon0.09_PT051H.grib2 2026-04-25 14:57 462K
20260425T12Z_MSC_RDPS_WindU_IsbL-0500_RLatLon0.09_PT051H.grib2 2026-04-25 14:57 462K
20260425T12Z_MSC_RDPS_WindU_IsbL-0550_RLatLon0.09_PT051H.grib2 2026-04-25 14:57 460K
20260425T12Z_MSC_RDPS_WindU_IsbL-0600_RLatLon0.09_PT051H.grib2 2026-04-25 14:57 470K
20260425T12Z_MSC_RDPS_WindU_IsbL-0650_RLatLon0.09_PT051H.grib2 2026-04-25 14:57 490K
20260425T12Z_MSC_RDPS_WindU_IsbL-0700_RLatLon0.09_PT051H.grib2 2026-04-25 14:57 510K
20260425T12Z_MSC_RDPS_WindU_IsbL-0750_RLatLon0.09_PT051H.grib2 2026-04-25 14:57 537K
20260425T12Z_MSC_RDPS_WindU_IsbL-0800_RLatLon0.09_PT051H.grib2 2026-04-25 14:57 571K
20260425T12Z_MSC_RDPS_WindU_IsbL-0850_RLatLon0.09_PT051H.grib2 2026-04-25 14:57 624K
20260425T12Z_MSC_RDPS_WindU_IsbL-0875_RLatLon0.09_PT051H.grib2 2026-04-25 14:57 650K
20260425T12Z_MSC_RDPS_WindU_IsbL-0900_RLatLon0.09_PT051H.grib2 2026-04-25 14:57 662K
20260425T12Z_MSC_RDPS_WindU_IsbL-0925_RLatLon0.09_PT051H.grib2 2026-04-25 14:57 662K
20260425T12Z_MSC_RDPS_WindU_IsbL-0950_RLatLon0.09_PT051H.grib2 2026-04-25 14:57 659K
20260425T12Z_MSC_RDPS_WindU_IsbL-0970_RLatLon0.09_PT051H.grib2 2026-04-25 14:57 656K
20260425T12Z_MSC_RDPS_WindU_IsbL-0985_RLatLon0.09_PT051H.grib2 2026-04-25 14:57 656K
20260425T12Z_MSC_RDPS_WindU_IsbL-1000_RLatLon0.09_PT051H.grib2 2026-04-25 14:57 656K
20260425T12Z_MSC_RDPS_WindU_IsbL-1015_RLatLon0.09_PT051H.grib2 2026-04-25 14:57 653K
20260425T12Z_MSC_RDPS_WindV_AGL-10m_RLatLon0.09_PT051H.grib2 2026-04-25 14:57 437K
20260425T12Z_MSC_RDPS_WindV_AGL-120m_RLatLon0.09_PT051H.grib2 2026-04-25 14:57 422K
20260425T12Z_MSC_RDPS_WindV_AGL-40m_RLatLon0.09_PT051H.grib2 2026-04-25 14:57 542K
20260425T12Z_MSC_RDPS_WindV_AGL-80m_RLatLon0.09_PT051H.grib2 2026-04-25 14:57 540K
20260425T12Z_MSC_RDPS_WindV_IsbL-0001_RLatLon0.09_PT051H.grib2 2026-04-25 14:57 291K
20260425T12Z_MSC_RDPS_WindV_IsbL-0005_RLatLon0.09_PT051H.grib2 2026-04-25 14:57 330K
20260425T12Z_MSC_RDPS_WindV_IsbL-0010_RLatLon0.09_PT051H.grib2 2026-04-25 14:57 301K
20260425T12Z_MSC_RDPS_WindV_IsbL-0020_RLatLon0.09_PT051H.grib2 2026-04-25 14:57 318K
20260425T12Z_MSC_RDPS_WindV_IsbL-0030_RLatLon0.09_PT051H.grib2 2026-04-25 14:57 317K
20260425T12Z_MSC_RDPS_WindV_IsbL-0050_RLatLon0.09_PT051H.grib2 2026-04-25 14:57 347K
20260425T12Z_MSC_RDPS_WindV_IsbL-0100_RLatLon0.09_PT051H.grib2 2026-04-25 14:57 326K
20260425T12Z_MSC_RDPS_WindV_IsbL-0150_RLatLon0.09_PT051H.grib2 2026-04-25 14:57 384K
20260425T12Z_MSC_RDPS_WindV_IsbL-0175_RLatLon0.09_PT051H.grib2 2026-04-25 14:57 317K
20260425T12Z_MSC_RDPS_WindV_IsbL-0200_RLatLon0.09_PT051H.grib2 2026-04-25 14:57 330K
20260425T12Z_MSC_RDPS_WindV_IsbL-0225_RLatLon0.09_PT051H.grib2 2026-04-25 14:57 359K
20260425T12Z_MSC_RDPS_WindV_IsbL-0250_RLatLon0.09_PT051H.grib2 2026-04-25 14:57 358K
20260425T12Z_MSC_RDPS_WindV_IsbL-0275_RLatLon0.09_PT051H.grib2 2026-04-25 14:57 372K
20260425T12Z_MSC_RDPS_WindV_IsbL-0300_RLatLon0.09_PT051H.grib2 2026-04-25 14:57 369K
20260425T12Z_MSC_RDPS_WindV_IsbL-0350_RLatLon0.09_PT051H.grib2 2026-04-25 14:57 353K
20260425T12Z_MSC_RDPS_WindV_IsbL-0400_RLatLon0.09_PT051H.grib2 2026-04-25 14:57 356K
20260425T12Z_MSC_RDPS_WindV_IsbL-0450_RLatLon0.09_PT051H.grib2 2026-04-25 14:57 457K
20260425T12Z_MSC_RDPS_WindV_IsbL-0500_RLatLon0.09_PT051H.grib2 2026-04-25 14:57 455K
20260425T12Z_MSC_RDPS_WindV_IsbL-0550_RLatLon0.09_PT051H.grib2 2026-04-25 14:57 454K
20260425T12Z_MSC_RDPS_WindV_IsbL-0600_RLatLon0.09_PT051H.grib2 2026-04-25 14:57 464K
20260425T12Z_MSC_RDPS_WindV_IsbL-0650_RLatLon0.09_PT051H.grib2 2026-04-25 14:57 484K
20260425T12Z_MSC_RDPS_WindV_IsbL-0700_RLatLon0.09_PT051H.grib2 2026-04-25 14:57 505K
20260425T12Z_MSC_RDPS_WindV_IsbL-0750_RLatLon0.09_PT051H.grib2 2026-04-25 14:57 518K
20260425T12Z_MSC_RDPS_WindV_IsbL-0800_RLatLon0.09_PT051H.grib2 2026-04-25 14:57 564K
20260425T12Z_MSC_RDPS_WindV_IsbL-0850_RLatLon0.09_PT051H.grib2 2026-04-25 14:57 617K
20260425T12Z_MSC_RDPS_WindV_IsbL-0875_RLatLon0.09_PT051H.grib2 2026-04-25 14:57 637K
20260425T12Z_MSC_RDPS_WindV_IsbL-0900_RLatLon0.09_PT051H.grib2 2026-04-25 14:57 652K
20260425T12Z_MSC_RDPS_WindV_IsbL-0925_RLatLon0.09_PT051H.grib2 2026-04-25 14:57 660K
20260425T12Z_MSC_RDPS_WindV_IsbL-0950_RLatLon0.09_PT051H.grib2 2026-04-25 14:57 657K
20260425T12Z_MSC_RDPS_WindV_IsbL-0970_RLatLon0.09_PT051H.grib2 2026-04-25 14:57 653K
20260425T12Z_MSC_RDPS_WindV_IsbL-0985_RLatLon0.09_PT051H.grib2 2026-04-25 14:57 794K
20260425T12Z_MSC_RDPS_WindV_IsbL-1000_RLatLon0.09_PT051H.grib2 2026-04-25 14:57 794K
20260425T12Z_MSC_RDPS_WindV_IsbL-1015_RLatLon0.09_PT051H.grib2 2026-04-25 14:57 789K